Погода Бологое

Погода Бологое : погода сейчас, прогноз погоды и архив. Всё, что Вы хотите узнать о погоде Бологое!

Поиск расширенной информации на нашем сайте:

Другие новости

Новости СМИ2

Главная страница сайта

Новости сайта

03.07.2017

Напоминаем, что на нашем специализированном сайте Метеоцентр.Азия вы можете получить высокодетализированные автоматические прогнозы погоды по пунктам России, СНГ и мира в авиационном формате (включающие направление и скорость ветра, видимость, явления погоды, количество и форму облачности, нижнюю и верхнюю границу облачности).


Погода Бологое - сегодня

Время (UTC), дата Ветер
(°,м/с) 
Видим.   Явления Облачность Т
(°С)
Тd
(°С)
f(%) Тe
(°С)
Pmin
(гПа)
dP
(гПа)
Po
(мм)
O2
(г/м3)
Тmin Tmax R s Состояние
почвы
03 14.06.18 140 (ЮВ) 4000 м  дымка  8/0 средняя, верхняя 
[Ac cast|Ci fib]
+7.7 +6.1 90 +9  1015.6  1.2  745  291  +4.9         
09 14.06.18 180 (Ю) 20000 м    4/3 600 м верхняя 
[Cu med, cong|Ci fib]
+15.7 +3.5 44 +16  1016.8  0.4  746  284           
12 14.06.18 170 (Ю) 20000 м    5/3 600 м верхняя 
[Cu med, cong|Ci fib]
+17.5 +2.4 36 +18  1016.6  746  282           
15 14.06.18 120 (ЮВ) 20000 м    3/1 600 м верхняя 
[Cu med, cong|Ci fib]
+18.1 +1.5 33 +19  1016  -0.6  746  282           
21 14.06.18 160 (Ю) 10 км    ясно 
+9.5 +4.8 72 +11  1018.3  1.2  747  290           
00 15.06.18 140 (ЮВ) 10 км    ясно 
+6 +4.9 93 +7  1019.2  0.7  747  294           
03 15.06.18 160 (Ю) 10 км    3/0 верхняя 
[Ci fib]
+10.7 +6 73 +12  1019.5  0.6  748  289  +5.7         
09 15.06.18 130 (ЮВ) 20000 м    8/0 верхняя 
[Ci fib]
+19.2 +4.5 38 +20  1019.1  748  281           
12 15.06.18 160 (Ю) 20000 м    6/0 верхняя 
[Ci fib]
+20.5 +1.2 28 +21  1018.8  -0.2  748  280           
15 15.06.18 100 (В) 20000 м    3/0 верхняя 
[Ci fib]
+20.7 +2.1 29 +21  1018.2  -0.5  747  280           
21 15.06.18 140 (ЮВ) 10 км    ясно 
+9.8 +6.8 82 +11  1020  0.8  748  290           
03 16.06.18 тихо ()   10 км    3/0 средняя, верхняя 
[Ac cast|Ci fib]
+12.9 +8.2 73 +13  1021.2  0.6  749  287  +6.6         
09 16.06.18 170 (Ю) 20000 м    4/3 600 м верхняя 
[Cu hum|Ci fib]
+21.8 +5.3 34 +22  1020.7  -0.1  749  279           
12 16.06.18 130 (ЮВ) 20000 м    3/1 600 м верхняя 
[Cu hum|Ci fib]
+22.3 +4.6 31 +22  1019.9  -0.7  749  278           
15 16.06.18 140 (ЮВ) 20000 м    4/0 средняя, верхняя 
[Ac cast|Cc]
+22.6 +4.3 30 +23  1019.2  -0.7  748  278           
21 16.06.18 тихо ()   10 км    9/4 600 м средняя 
[Sc|Ac cast]
+15.2 +9.8 70 +16  1020.1  0.4  748  284           
00 17.06.18 тихо ()   10 км    9/9 600 м 
[Sc]
+14.8 +10.1 73 +16  1020.4  0.2  749  284           
03 17.06.18 110 (В) 10 км    9/9 600 м 
[Sc]
+15.4 +9.9 70 +18  1020.4  0.1  749  284  +14.6         
09 17.06.18 180 (Ю) 20000 м    8/4 600 м средняя 
[Sc|Ac cast]
+23.1 +6.5 34 +23  1019.2  -0.5  748  277           
12 17.06.18 120 (ЮВ) 20000 м    9/5 600 м средняя 
[Sc|Ac cast]
+23 +7.6 37 +23  1018.4  -0.7  748  277           
15 17.06.18 140 (ЮВ) 20000 м    6/3 600 м средняя 
[Cu Sc|Ac cast]
+24.2 +7.4 34 +24  1017.4  -0.9  747  275           
21 17.06.18 тихо ()   10 км    8/8 600 м 
[Sc]
+15.5 +12.5 82 +20  1017.9  0.2  747  282           
00 18.06.18 100 (В) 10 км    9/9 600 м 
[Sc]
+15.5 +13.1 86 +23  1017.7  -0.2  747  282           
03 18.06.18 100 (В) 10 км    8/4 600 м средняя 
[Sc|Ac cast]
+15 +11.4 79 +19  1017.1  -0.6  746  283  +14.6         
09 18.06.18 190 (Ю) 20000 м    4/4 600 м 
[Cu med, cong]
+25.7 +10.1 37 +27  1014.9  -0.6  745  273           
Время (UTC), дата Ветер
(°,м/с) 
Видим.   Явления Облачность Т
(°С)
Тd
(°С)
f(%) Тe
(°С)
Pmin
(гПа)
dP
(гПа)
Po
(мм)
O2
(г/м3)
Тmin Tmax R s Состояние
почвы

Для получения пояснительной информации подведите курсор к названию столбца.

ПОГОДА Бологое - архив

Всё, что Вы хотите узнать о погоде Бологое - удобно и подробно!

Выберите нужную дату (начиная с 1 января 2015* года) и нажмите кнопку "Найти".
Будут отображены архивные сводки погоды по пункту Бологое, начиная с указанной даты.


Отображать данные в формате CSV (для использования в таблицах Excel)


Внимание! Наш архив погоды предназначен исключительно для личного некоммерческого использования в познавательных целях. Если Вам необходимы официальные справки о состоянии погоды (для производственных, юридических, коммерческих и т.п. целей), обращайтесь в органы Росгидромета.

*Примечание: данная дата относится к архиву по метеостанциям СССР (Россия, СНГ, Балтия).
Архив по метеостанциям Зарубежной Европы и Азии (кроме Китая) хранится 10 дней, по другим регионам земного шара (Китай, Африка, Америка, Австралия, Океания) - 1 день.

Бологое - район местоположения метеостанции


Название, широта, долгота, высота метеостанции:
Бологое 57.9°ш. 34.1°д. 188 м над ур. моря [Российская Федерация]

Дополнительная информация

В oтличие oт бoльшинства пoгoдных сайтoв мы публикуем пoдрoбную метеoинфoрмацию в детальнoм прoфессиoнальнoм фoрмате.

Характеристики температуры и влажнoсти вoздуха измеряются на высoте 2 м в тени вдали oт зданий и деревьев.
Скoрoсть ветра измеряется на высoте 10 м (на урoвне рoста челoвека скoрoсть ветра ниже в 1.5-2 раза). Если метеoстанция нахoдится в гoрoде или в лесу, тo скoрoсть ветра занижена на 2-4 м/с пo сравнению с oткрытым местoм. Скoрoсть ветра над акватoриями крупных рек и oзёр, а также на вершинах хoлмoв на 2-5 м/с выше, чем в oбычных услoвиях.
Атмoсфернoе давление в разных тoчках местнoсти мoжет значительнo oтличаться oт давления на метеoстанции, в зависимoсти oт услoвий рельефа (при пoдъёме на 10 м давление пoнижается примернo на 1 мм рт.ст.).